Regional Weather Roundup
Issued by NWS

Home | Current Version | Previous Version | Graphics & Text | Print | Product List | Glossary On
Versions: 1 2 3 4 5 6 7 8 9 10 11 12 13 14 15 16 17 18 19 20 21 22 23 24 25 26 27 28 29 30 31 32 33 34 35 36 37 38 39 40 41 42 43 44 45 46 47 48 49 50
000
ASUS44 KMEG 190810
RWRTN
TENNESSEE HOURLY STATE WEATHER ROUNDUP
NATIONAL WEATHER SERVICE MEMPHIS TN
200 AM CST MON FEB 19 2018

TNZ002-004-019-021-049-052-054-088>092-190900-
WEST TENNESSEE

CITY           SKY/WX    TMP DP  RH WIND       PRES   REMARKS
MEMPHIS INTL   MOCLDY    58  55  90 S12       30.06S
NWS MEMPHIS      N/A     57 N/A N/A MISG        N/A
JACKSON        CLOUDY    57  55  93 S6        30.09F
DYERSBURG      CLOUDY    56  54  93 S8        30.07S
COVINGTON      CLOUDY    57  55  94 S7        30.07F
UNION CITY     CLOUDY    55  54  94 S10G16    30.06S
BOLIVAR        MOCLDY    57  55  94 SE8       30.09S
PARIS          CLOUDY    55  54  94 S13       30.08S
HUNTINGDON     CLOUDY    57  55  94 S10       30.09S
LEXINGTON      CLOUDY    57  55  94 S9        30.12S
SELMER         CLOUDY    57  55  94 S9        30.11S
SAVANNAH       CLOUDY    57  55  94 S8        30.12S
$$

TNZ008-025-027-028-033-062-065-066-190900-
NORTH MIDDLE TENNESSEE

CITY           SKY/WX    TMP DP  RH WIND       PRES   REMARKS
NASHVILLE      CLOUDY    58  55  90 S8        30.16F
PORTLAND       CLOUDY    57  54  88 S12       30.15R
CLARKSVILLE    CLOUDY    57  52  83 S12       30.12R
SMYRNA         CLOUDY    59  56  89 S5        30.18R
COOKEVILLE     CLOUDY    59  55  88 S6        30.18S
GALLATIN       CLOUDY    59  55  88 S7G13     30.18S
CROSSVILLE     CLOUDY    56  54  93 S8        30.22S
$$

TNZ061-075-076-078-094-096-097-190900-
SOUTH MIDDLE TENNESSEE

CITY           SKY/WX    TMP DP  RH WIND       PRES   REMARKS
TULLAHOMA      CLOUDY    57  55  94 SE6       30.18R
MCMINNVILLE    CLOUDY    59  57  94 CALM      30.18S
COLUMBIA       CLOUDY    57  57 100 S6        30.14S
SHELBYVILLE    CLOUDY    57  55  94 CALM      30.18R
$$

TNZ017-018-042-046-047-190900-
NORTHEAST TENNESSEE

CITY           SKY/WX    TMP DP  RH WIND       PRES   REMARKS
TRI CITIES     LGT RAIN  51  49  92 CALM      30.29R FOG
ELIZABETHTON   LGT RAIN  50  48  93 E7        30.30R
$$

TNZ012-013-036-069-073-074-190900-
CENTRAL EAST TENNESSEE

CITY           SKY/WX    TMP DP  RH WIND       PRES   REMARKS
KNOXVILLE      CLOUDY    50  48  93 E5        30.24R
OAK RIDGE      CLOUDY    53  47  79 CALM      30.25S
DOWNTOWN KNOXV CLOUDY    52  46  82 SE3       30.26S
GATLINBURG     CLOUDY    50  45  81 CALM      30.26S
MORRISTOWN     CLOUDY    48  46  93 CALM      30.25F
$$

TNZ083-085-099-190900-
SOUTHEAST TENNESSEE

CITY           SKY/WX    TMP DP  RH WIND       PRES   REMARKS
CHATTANOOGA    CLOUDY    58  56  93 S5        30.23F
$$

SKY/WX REPORTED AS FAIR MEANS FEW OR NO CLOUDS BELOW
12 THOUSAND FEET.





USA.gov is the U.S. government's official web portal to all federal, state and local government web resources and services.